Location: Unspecified
(0.0000°N, 1.0000°E)
Time: 16:08:08
(UTC+02:00)

Amateur Radio Satellites - All Passes

Search period start: 21 October 2017 15:38
Search period end: 22 October 2017 15:38
Location: Unspecified, 0.0000°N, 1.0000°E

Satellite Date Start Highest point End Downlink Frequencies (MHz)
Time Altitude Azimuth
DX 1 21 Oct 15:38:16 15:42:20 39° 282° (WNW) 15:46:26 434.975-435.025
ITUPSAT 1 21 Oct 15:55:07 15:56:42 12° 103° (ESE) 15:58:17 437.325
UKube-1 21 Oct 16:00:28 16:04:22 34° 282° (WNW) 16:08:18 .
M-CUBED/EXP-1 PRIME 21 Oct 16:07:32 16:09:07 12° 252° (WSW) 16:10:40 437.505
BEESAT 21 Oct 16:08:13 16:11:32 19° 103° (ESE) 16:14:52 436.000
JUGNU 21 Oct 16:41:39 16:46:50 32° 199° (SSW) 16:52:04 437.505
MOZHAYETS 4 21 Oct 16:50:55 16:55:27 87° 99° (E) 17:00:01
AO-7 21 Oct 17:00:34 17:08:55 77° 74° (ENE) 17:17:11 .
ITAMSAT 1 21 Oct 17:01:49 17:06:53 58° 78° (ENE) 17:11:57 435.822/435.867
CUBESAT XI-V 21 Oct 17:06:03 17:09:14 19° 102° (ESE) 17:12:26 437.345
SRMSAT 21 Oct 17:16:34 17:22:33 73° 21° (NNE) 17:28:33 437.500
ITUPSAT 1 21 Oct 17:29:56 17:34:14 35° 283° (WNW) 17:38:33 437.325
SO-50 21 Oct 17:41:46 17:45:31 24° 68° (ENE) 17:49:18 436.795
BEESAT 21 Oct 17:45:25 17:49:02 22° 283° (WNW) 17:52:39 436.000
KKS-1 21 Oct 18:11:17 18:15:07 28° 102° (ESE) 18:18:57 437.445
JUGNU 21 Oct 18:33:09 18:36:24 15° 192° (SSW) 18:39:41 437.505
STARS 21 Oct 18:41:24 18:44:52 23° 102° (ESE) 18:48:19 437.465
CUBESAT XI-V 21 Oct 18:42:53 18:46:19 21° 282° (WNW) 18:49:47 437.345
AO-7 21 Oct 18:58:21 19:01:10 12° 252° (WSW) 19:04:00 .
DOVE 4 21 Oct 19:02:33 19:06:36 51° 259° (WSW) 19:10:36 437.250
SRMSAT 21 Oct 19:06:10 19:11:48 41° 200° (SSW) 19:17:27 437.500
KAITUO 1B 21 Oct 19:08:55 19:11:17 16° 79° (E) 19:13:37 145.475/437.950
XW-2F 21 Oct 19:11:47 19:14:57 25° 79° (E) 19:18:05 145.980 - 146.000
CUTE-I 21 Oct 19:18:50 19:23:28 31° 77° (ENE) 19:28:04 437.470
LilacSat-2 21 Oct 19:18:51 19:22:29 40° 79° (E) 19:26:06 437.200
NUDT-PHONESAT 21 Oct 19:20:35 19:23:36 23° 79° (E) 19:26:35 437.300
SO-50 21 Oct 19:22:32 19:25:45 18° 247° (WSW) 19:28:58 436.795
XW-2D 21 Oct 19:24:31 19:28:14 47° 79° (ENE) 19:31:53 145.860 - 145.880
HO-68 21 Oct 19:37:29 19:42:14 19° 75° (ENE) 19:46:57 435.675
XW-2B 21 Oct 19:37:52 19:41:42 76° 78° (ENE) 19:45:30 145.730 - 145.750
CUTE 1.7 + AOD 2 21 Oct 19:43:09 19:43:52 10° 79° (ENE) 19:44:36 437.475
ISS 21 Oct 19:43:34 19:46:08 22° 54° (NE) 19:48:45 437.550
KKS-1 21 Oct 19:49:29 19:51:23 13° 282° (WNW) 19:53:18 437.445
O/OREOS (USA 219) 21 Oct 19:50:04 19:52:15 13° 105° (ESE) 19:54:27 437.305
STRAND 1 21 Oct 20:01:08 20:03:34 13° 103° (ESE) 20:05:59 437.568
XW-2C 21 Oct 20:01:21 20:04:59 41° 259° (WSW) 20:08:36 145.795 - 145.815
PCSat 21 Oct 20:14:55 20:20:18 75° 251° (WSW) 20:25:41 145.827
STARS 21 Oct 20:18:20 20:20:55 15° 282° (WNW) 20:23:31 437.465
XW-2A 21 Oct 20:37:07 20:39:09 15° 79° (E) 20:41:09 145.665 - 145.685
KAITUO 1B 21 Oct 20:42:51 20:44:59 15° 258° (WSW) 20:47:06 145.475/437.950
nSIGHT-1 21 Oct 20:43:45 20:46:32 27° 234° (SW) 20:49:21 .
CUBEBUG 2 21 Oct 20:51:25 20:55:49 56° 78° (ENE) 21:00:20 437.445
SRMSAT 21 Oct 20:57:24 21:01:24 18° 194° (SSW) 21:05:24 437.500
CUTE-I 21 Oct 20:59:55 21:03:13 17° 257° (WSW) 21:06:31 437.470
FO-29 21 Oct 21:02:35 21:06:00 13° 104° (ESE) 21:09:24 435.910
ZACube-1 21 Oct 21:03:22 21:06:23 18° 78° (ENE) 21:09:24 437.345
CUTE 1.7 + AOD 2 21 Oct 21:15:42 21:19:26 29° 258° (WSW) 21:23:07 437.475
SEEDS 21 Oct 21:20:10 21:24:14 47° 259° (WSW) 21:28:15 437.485
ISS 21 Oct 21:21:25 21:22:26 11° 234° (SW) 21:23:27 437.550
HO-68 21 Oct 21:22:51 21:29:36 46° 255° (WSW) 21:36:22 435.675
UWE-3 21 Oct 21:26:53 21:31:25 87° 77° (ENE) 21:36:01 435.000/436.395/437.385
O/OREOS (USA 219) 21 Oct 21:27:39 21:31:22 25° 285° (WNW) 21:35:07 437.305
Oscar 11 21 Oct 21:37:31 21:41:11 26° 78° (ENE) 21:44:48 .
STRAND 1 21 Oct 21:37:48 21:42:27 36° 282° (WNW) 21:47:07 437.568
AAUSAT CUBESAT 2 21 Oct 21:40:19 21:44:27 72° 259° (W) 21:48:31 437.432
YUBILEINY 21 Oct 22:08:37 22:17:19 65° 87° (E) 22:26:03 435.215
XW-2A 21 Oct 22:10:11 22:11:34 12° 258° (WSW) 22:12:57 145.665 - 145.685
JUGNU 21 Oct 22:14:19 22:16:43 12° 171° (S) 22:19:07 437.505
AO-73 21 Oct 22:15:10 22:19:33 51° 259° (WSW) 22:23:58 145.935
ZACube-1 21 Oct 22:38:56 22:42:22 21° 259° (WSW) 22:45:49 437.345
FO-29 21 Oct 22:42:50 22:50:29 73° 283° (WNW) 22:58:20 435.910
UNISAT 6 21 Oct 22:50:04 22:53:41 25° 101° (ESE) 22:57:15 437.425
SRMSAT 21 Oct 22:50:23 22:51:33 11° 185° (S) 22:52:44 437.500
BEESAT 3 21 Oct 22:51:35 22:53:54 15° 68° (ENE) 22:56:13 437.485
DELFI C3 21 Oct 22:56:48 23:00:37 50° 78° (ENE) 23:04:23 145.870
TIGRISAT 21 Oct 23:04:06 23:08:08 35° 101° (ESE) 23:12:05 435.000
Oscar 11 21 Oct 23:15:11 23:17:01 12° 258° (WSW) 23:18:51 .
EO-88 21 Oct 23:21:55 23:25:30 53° 79° (E) 23:29:03 145.990 - 145.960
PRISM 21 Oct 23:31:10 23:34:52 31° 102° (ESE) 23:38:34 437.425
Max Valier Satellite 21 Oct 23:34:36 23:38:16 56° 258° (WSW) 23:41:56 145.860
RS-15 21 Oct 23:41:11 23:52:10 44° 110° (ESE) 00:03:27 29.354- 29.394
JUGNU 22 Oct 00:01:43 00:06:30 24° 163° (SSE) 00:11:16 437.505
LO-87 22 Oct 00:08:17 00:10:43 17° 79° (ENE) 00:13:08 145.935 - 145.965
YUBILEINY 22 Oct 00:09:24 00:13:44 15° 267° (W) 00:18:04 435.215
BEESAT 2 22 Oct 00:13:54 00:17:43 51° 68° (ENE) 00:21:30 435.950
UNISAT 6 22 Oct 00:27:58 00:30:07 13° 282° (WNW) 00:32:14 437.425
BEESAT 3 22 Oct 00:28:48 00:31:10 16° 248° (WSW) 00:33:32 437.485
SRMSAT 22 Oct 00:40:25 00:41:57 11° 174° (S) 00:43:29 437.500
AO-85 22 Oct 00:42:06 00:47:11 82° 68° (ENE) 00:52:32 145.980
EO-79 22 Oct 01:05:43 01:09:32 34° 102° (ESE) 01:13:21 145.935-145.965
POLYITAN 1 22 Oct 01:10:43 01:14:40 40° 102° (ESE) 01:18:37 437.675
ESTCUBE 1 22 Oct 01:26:32 01:30:52 46° 258° (WSW) 01:35:11 437.505/2401.250
AIST 2D 22 Oct 01:29:43 01:32:10 18° 281° (W) 01:34:38 435.315
QB50P2 22 Oct 01:30:49 01:35:03 84° 280° (W) 01:39:15 145.880/145.840
NANOSAT C BR1 22 Oct 01:32:37 01:36:48 77° 103° (ESE) 01:40:59 145.865
DUCHIFAT 1 22 Oct 01:42:32 01:46:43 90° 139° (SE) 01:50:54 145.980
LO-87 22 Oct 01:42:40 01:43:50 11° 258° (WSW) 01:45:01 145.935 - 145.965
BUGSAT 1 22 Oct 01:46:28 01:48:53 15° 102° (ESE) 01:51:16 437.445
JUGNU 22 Oct 01:49:50 01:55:46 61° 159° (SSE) 02:01:40 437.505
SPROUT 22 Oct 01:50:21 01:54:33 60° 79° (ENE) 01:58:45 437.525
RS-15 22 Oct 01:53:47 02:04:12 36° 292° (WNW) 02:14:59 29.354- 29.394
NO-84 22 Oct 01:59:20 02:03:15 57° 302° (WNW) 02:07:23 435.350 FM
DX 1 22 Oct 02:14:41 02:16:01 11° 78° (ENE) 02:17:20 434.975-435.025
Gurwin Techsat 1B 22 Oct 02:27:11 02:30:25 16° 103° (ESE) 02:33:39 435.225
SRMSAT 22 Oct 02:27:49 02:32:02 20° 165° (SSE) 02:36:14 437.500
M-CUBED/EXP-1 PRIME 22 Oct 02:29:48 02:32:53 20° 107° (ESE) 02:36:07 437.505
UKube-1 22 Oct 02:35:12 02:36:58 12° 78° (ENE) 02:38:44 .
VELOX 1 22 Oct 02:46:30 02:50:28 34° 258° (WSW) 02:54:27 145.980
BUGSAT 1 22 Oct 03:21:00 03:23:57 19° 282° (WNW) 03:26:54 437.445
Oscar 19 22 Oct 03:21:31 03:26:33 64° 283° (WNW) 03:31:39 437.125/150
50 SAT 22 Oct 03:35:12 03:37:41 20° 258° (WSW) 03:40:09 437.505
AO-7 22 Oct 03:38:45 03:42:50 14° 108° (ESE) 03:46:55 .
JUGNU 22 Oct 03:39:04 03:44:50 49° 339° (NNW) 03:50:34 437.505
DX 1 22 Oct 03:48:11 03:51:55 28° 258° (WSW) 03:55:38 434.975-435.025
M-CUBED/EXP-1 PRIME 22 Oct 04:04:25 04:07:01 17° 284° (WNW) 04:09:45 437.505
Gurwin Techsat 1B 22 Oct 04:05:25 04:10:04 32° 283° (WNW) 04:14:45 435.225
UKube-1 22 Oct 04:09:08 04:12:43 26° 258° (WSW) 04:16:17 .
ITUPSAT 1 22 Oct 04:15:08 04:18:54 23° 77° (ENE) 04:22:39 437.325
SRMSAT 22 Oct 04:15:51 04:21:33 46° 160° (SSE) 04:27:13 437.500
BEESAT 22 Oct 04:28:58 04:33:21 36° 78° (ENE) 04:37:42 436.000
MOZHAYETS 4 22 Oct 05:07:34 05:12:08 55° 258° (WSW) 05:16:39
CUBESAT XI-V 22 Oct 05:23:23 05:27:33 32° 78° (ENE) 05:31:40 437.345
AO-7 22 Oct 05:26:54 05:35:08 69° 286° (WNW) 05:43:26 .
JUGNU 22 Oct 05:29:52 05:34:10 20° 344° (NNW) 05:38:26 437.505
ITAMSAT 1 22 Oct 05:36:45 05:41:49 53° 283° (WNW) 05:46:53 435.822/435.867
DOVE 4 22 Oct 05:46:20 05:49:32 16° 102° (ESE) 05:52:43 437.250
ITUPSAT 1 22 Oct 05:53:10 05:56:27 18° 257° (WSW) 05:59:42 437.325
SO-50 22 Oct 05:54:01 05:58:18 41° 112° (ESE) 06:02:31 436.795
SRMSAT 22 Oct 06:04:53 06:10:46 64° 339° (NNW) 06:16:37 437.500
BEESAT 22 Oct 06:09:24 06:10:49 11° 257° (WSW) 06:12:14 436.000
KKS-1 22 Oct 06:23:20 06:27:30 41° 78° (ENE) 06:31:39 437.445
STARS 22 Oct 06:51:41 06:55:33 31° 78° (ENE) 06:59:25 437.465
KAITUO 1B 22 Oct 07:01:50 07:03:09 12° 102° (ESE) 07:04:28 145.475/437.950
CUBESAT XI-V 22 Oct 07:02:54 07:04:37 12° 257° (WSW) 07:06:19 437.345
XW-2F 22 Oct 07:05:07 07:07:49 19° 102° (ESE) 07:10:31 145.980 - 146.000
PCSat 22 Oct 07:09:10 07:13:20 23° 110° (ESE) 07:17:29 145.827
NUDT-PHONESAT 22 Oct 07:12:12 07:14:31 16° 102° (ESE) 07:16:52 437.300
LilacSat-2 22 Oct 07:13:13 07:16:34 31° 101° (ESE) 07:19:57 437.200
XW-2D 22 Oct 07:18:06 07:21:32 35° 102° (ESE) 07:25:00 145.860 - 145.880
ISS 22 Oct 07:18:20 07:20:03 14° 126° (SE) 07:21:47 437.550
DOVE 4 22 Oct 07:22:12 07:26:52 33° 282° (WNW) 07:31:36 437.250
JUGNU 22 Oct 07:22:37 07:24:01 11° 353° (N) 07:25:25 437.505
HO-68 22 Oct 07:29:50 07:33:48 16° 105° (ESE) 07:37:44 435.675
XW-2B 22 Oct 07:31:22 07:35:02 57° 101° (ESE) 07:38:44 145.730 - 145.750
CUTE 1.7 + AOD 2 22 Oct 07:48:01 07:49:56 13° 102° (ESE) 07:51:50 437.475
XW-2C 22 Oct 07:54:43 07:58:22 53° 281° (W) 08:02:02 145.795 - 145.815
SRMSAT 22 Oct 07:55:24 08:00:07 25° 343° (NNW) 08:04:51 437.500
CUTE-I 22 Oct 07:57:19 08:02:41 89° 288° (WNW) 08:08:05 437.470
O/OREOS (USA 219) 22 Oct 07:59:42 08:03:17 23° 75° (ENE) 08:06:52 437.305
nSIGHT-1 22 Oct 08:15:58 08:19:05 49° 306° (NW) 08:22:10 .
STARS 22 Oct 08:30:43 08:31:36 10° 257° (WSW) 08:32:28 437.465
STRAND 1 22 Oct 08:31:32 08:36:07 34° 77° (ENE) 08:40:41 437.568
KAITUO 1B 22 Oct 08:34:12 08:36:51 19° 281° (W) 08:39:31 145.475/437.950
XW-2F 22 Oct 08:40:17 08:41:39 12° 281° (W) 08:43:01 145.980 - 146.000
NUDT-PHONESAT 22 Oct 08:46:22 08:48:06 13° 281° (W) 08:49:51 437.300
YUBILEINY 22 Oct 08:51:05 08:54:29 13° 93° (E) 08:57:52 435.215
PCSat 22 Oct 08:52:11 08:56:27 24° 290° (WNW) 09:00:42 145.827
ISS 22 Oct 08:54:06 08:56:19 17° 306° (NW) 08:58:32 437.550
CUBEBUG 2 22 Oct 09:04:01 09:08:25 85° 105° (ESE) 09:12:42 437.445
ZACube-1 22 Oct 09:12:56 09:16:07 21° 101° (ESE) 09:19:17 437.345
HO-68 22 Oct 09:14:11 09:21:09 55° 284° (WNW) 09:28:08 435.675
CUTE 1.7 + AOD 2 22 Oct 09:22:05 09:25:28 24° 281° (WNW) 09:28:53 437.475
SEEDS 22 Oct 09:25:13 09:29:07 39° 281° (W) 09:33:04 437.485
UWE-3 22 Oct 09:38:26 09:42:39 63° 282° (WNW) 09:46:49 435.000/436.395/437.385
O/OREOS (USA 219) 22 Oct 09:39:49 09:42:25 15° 255° (WSW) 09:45:00 437.305
AAUSAT CUBESAT 2 22 Oct 09:43:29 09:47:34 64° 282° (WNW) 09:51:42 437.432
Oscar 11 22 Oct 09:45:48 09:49:41 34° 101° (ESE) 09:53:36 .
SRMSAT 22 Oct 09:47:41 09:50:00 12° 351° (N) 09:52:19 437.500
XW-2A 22 Oct 09:51:05 09:53:44 22° 281° (W) 09:56:24 145.665 - 145.685
STRAND 1 22 Oct 10:12:22 10:15:00 14° 257° (WSW) 10:17:38 437.568
FO-29 22 Oct 10:18:16 10:23:28 60° 78° (ENE) 10:28:33 435.910
AO-73 22 Oct 10:25:10 10:28:57 34° 281° (WNW) 10:32:43 145.935
YUBILEINY 22 Oct 10:42:16 10:50:54 69° 273° (W) 10:59:30 435.215
BEESAT 3 22 Oct 10:42:41 10:45:08 16° 112° (ESE) 10:47:35 437.485
ZACube-1 22 Oct 10:49:59 10:52:08 14° 282° (WNW) 10:54:16 437.345
DELFI C3 22 Oct 10:54:35 10:58:25 47° 101° (ESE) 11:02:16 145.870
JUGNU 22 Oct 11:00:34 11:04:11 17° 14° (NNE) 11:07:48 437.505
UNISAT 6 22 Oct 11:02:21 11:06:35 39° 78° (ENE) 11:10:52 437.425
EO-88 22 Oct 11:11:34 11:14:52 34° 101° (ESE) 11:18:10 145.990 - 145.960
TIGRISAT 22 Oct 11:16:24 11:20:50 55° 78° (ENE) 11:25:20 435.000
RS-15 22 Oct 11:25:08 11:35:02 35° 68° (ENE) 11:44:34 29.354- 29.394
Max Valier Satellite 22 Oct 11:25:21 11:28:58 82° 279° (W) 11:32:37 145.860
PRISM 22 Oct 11:33:41 11:37:21 33° 78° (ENE) 11:40:59 437.425
LO-87 22 Oct 11:57:17 11:58:21 11° 101° (ESE) 11:59:24 145.935 - 145.965
BEESAT 2 22 Oct 12:06:28 12:10:17 53° 111° (ESE) 12:14:08 435.950
ESTCUBE 1 22 Oct 12:06:29 12:08:12 12° 103° (ESE) 12:09:55 437.505/2401.250
BEESAT 3 22 Oct 12:19:48 12:22:24 17° 292° (WNW) 12:25:01 437.485
JUGNU 22 Oct 12:48:12 12:53:36 38° 20° (NNE) 12:59:00 437.505
AO-85 22 Oct 12:56:24 13:00:20 47° 291° (WNW) 13:04:05 145.980
EO-79 22 Oct 13:11:26 13:15:27 42° 78° (ENE) 13:19:28 145.935-145.965
AIST 2D 22 Oct 13:14:46 13:17:57 32° 259° (W) 13:21:07 435.315
POLYITAN 1 22 Oct 13:16:37 13:20:45 50° 78° (ENE) 13:24:53 437.675
VELOX 1 22 Oct 13:23:12 13:25:37 14° 103° (ESE) 13:28:02 145.980
SRMSAT 22 Oct 13:27:27 13:30:36 14° 12° (NNE) 13:33:45 437.500
LO-87 22 Oct 13:28:58 13:31:28 18° 281° (WNW) 13:33:59 145.935 - 145.965
RS-15 22 Oct 13:36:52 13:46:55 39° 249° (WSW) 13:56:47 29.354- 29.394
QB50P2 22 Oct 13:36:57 13:41:10 67° 259° (WSW) 13:45:24 145.880/145.840
NANOSAT C BR1 22 Oct 13:38:05 13:42:19 88° 257° (WSW) 13:46:33 145.865
ESTCUBE 1 22 Oct 13:40:49 13:44:42 29° 282° (WNW) 13:48:37 437.505/2401.250
NO-84 22 Oct 13:43:19 13:46:25 63° 239° (WSW) 13:49:21 435.350 FM
DUCHIFAT 1 22 Oct 13:47:41 13:51:54 76° 258° (WSW) 13:56:07 145.980
BUGSAT 1 22 Oct 13:48:59 13:51:39 17° 78° (ENE) 13:54:20 437.445
SPROUT 22 Oct 13:57:11 14:01:26 77° 101° (E) 14:05:42 437.525
Oscar 19 22 Oct 14:17:32 14:21:17 20° 77° (ENE) 14:24:59 437.125/150
DX 1 22 Oct 14:22:48 14:25:27 16° 102° (ESE) 14:28:06 434.975-435.025
M-CUBED/EXP-1 PRIME 22 Oct 14:30:12 14:32:28 16° 76° (ENE) 14:34:39 437.505
JUGNU 22 Oct 14:36:48 14:42:39 77° 201° (SSW) 14:48:32 437.505
UKube-1 22 Oct 14:42:28 14:45:11 16° 103° (ESE) 14:47:53 .
VELOX 1 22 Oct 14:58:10 15:01:46 25° 282° (WNW) 15:05:24 145.980
Gurwin Techsat 1B 22 Oct 15:03:51 15:08:55 47° 78° (ENE) 15:13:59 435.225
50 SAT 22 Oct 15:13:51 15:17:03 50° 281° (WNW) 15:20:15 437.505
SRMSAT 22 Oct 15:15:07 15:20:20 31° 19° (NNE) 15:25:34 437.500
BUGSAT 1 22 Oct 15:23:57 15:26:44 18° 258° (WSW) 15:29:31 437.445
